Retour au catalogue

STARLINK-30569

ActifCommunicationsVLEO
NORAD 58068·PAYLOAD·🇺🇸 United States

Lancé Oct 13, 2023 depuis Cape Canaveral Space Force Station

Loading…

Prochains Passages (prochaines 24 heures)

TLE

FraisSource: CelesTrak SupGP

Époque: Sep 15, 2026, 02:09 UTC

1 58068C 23158T   26258.09006944 -.00076942  00000+0 -27866-2 0  2589
2 58068  43.0023  40.8359 0001715 261.3525 188.1062 15.27618411    11

Suivez STARLINK-30569 en temps réel avec AllMySat

Download on the App Store